Terminal Aerodrome Forecast
Issued by NWS

Home | Current Version | Previous Version | Text Only | Print | Product List | Glossary On
Versions: 1 2 3 4 5 6 7 8 9 10 11 12 13 14 15 16 17 18 19 20 21 22 23 24 25 26 27 28 29 30 31 32 33 34 35 36 37 38
000
FTUS45 KSLC 011237 AAA
TAF36U
TAF AMD
K36U 011237Z 0113/0212 VRB04KT P6SM VCSH BKN090
     FM011500 VRB04KT P6SM SCT090
     FM012100 21006KT P6SM SCT080 BKN120=

USA.gov is the U.S. government's official web portal to all federal, state and local government web resources and services.